FW2475 Weather Reports


time (UTC)temp
F
wind
direction
speed
knots
gust
knots
rain 1hr
in
rain 24hr
in
rain mn
in
humidity
%
barometer
mb
20260503203041 50 157 7.0 12.2 0.01 0.14 0.14 38 1014.4
20260503201533 49 155 7.0 12.2 0.03 0.14 0.14 38 1015.0
20260503200133 48 128 7.8 11.3 0.06 0.14 0.14 39 1015.4
20260503194530 48 150 4.3 7.0 0.10 0.14 0.14 42 1016.1
20260503193026 48 360 1.7 5.2 0.11 0.12 0.12 45 1016.9
20260503191534 49 360 2.6 7.8 0.11 0.11 0.11 46 1017.2
20260503190023 49 193 7.8 10.4 0.08 0.08 0.08 49 1017.7
20260503184521 50 222 7.8 12.2 0.04 0.04 0.04 51 1018.0
20260503183017 50 227 9.6 16.5 0.01 0.01 0.01 52 1017.9
20260503181515 52 236 15.6 20.9 0.00 0.00 0.00 52 1017.9
20260503180015 55 360 14.8 26.1 0.00 0.00 0.00 45 1017.7
20260503174513 58 227 18.2 24.3 0.00 0.00 0.00 37 1017.1
20260503173012 59 229 18.2 24.3 0.00 0.00 0.00 36 1017.1
20260503171510 60 236 17.4 21.7 0.00 0.00 0.00 34 1017.5
20260503160116 59 224 15.6 21.7 0.00 0.00 0.00 36 1018.4
20260503071541 39 188 0.0 1.7 0.00 0.00 0.00 53 1019.8
20260503054535 40 194 0.0 0.0 0.00 0.00 0.00 53 1020.5
20260503053026 40 194 0.0 0.0 0.00 0.00 0.00 52 1020.7
20260503051522 41 195 0.0 0.9 0.00 0.00 0.00 51 1020.8
20260503050021 41 195 0.9 1.7 0.00 0.00 0.00 50 1020.8
20260503044522 41 360 0.0 0.0 0.00 0.00 0.00 50 1020.9
20260503043034 42 360 0.0 0.9 0.00 0.00 0.00 49 1020.8
20260503041517 42 360 0.0 1.7 0.00 0.00 0.00 48 1021.0
20260503040113 41 360 0.0 0.0 0.00 0.00 0.00 51 1021.0
20260503034513 40 360 0.0 0.0 0.00 0.00 0.00 52 1021.0
20260503033019 41 360 0.0 0.0 0.00 0.00 0.00 51 1020.9
20260503031512 41 360 0.0 0.0 0.00 0.00 0.00 51 1021.1
20260503030011 42 360 0.0 0.0 0.00 0.00 0.00 50 1021.1
20260503024522 42 360 0.0 0.0 0.00 0.00 0.00 50 1021.1
20260503023010 42 355 0.0 0.0 0.00 0.00 0.00 52 1020.9
20260503021530 42 355 0.0 0.0 0.00 0.00 0.00 52 1021.0
20260503020010 43 360 0.0 0.0 0.00 0.00 0.00 52 1021.2
20260503014510 45 355 0.0 0.0 0.00 0.00 0.00 48 1020.9
20260503013009 46 355 0.0 1.7 0.00 0.00 0.00 45 1020.8
20260503011508 47 360 0.0 0.0 0.00 0.00 0.00 42 1020.7
20260503010008 48 350 0.0 0.0 0.00 0.00 0.00 40 1020.7
20260503004507 49 355 0.0 0.9 0.00 0.00 0.00 35 1020.9
20260503003012 51 355 0.0 2.6 0.00 0.00 0.00 34 1020.7
20260503001506 52 360 0.0 2.6 0.00 0.00 0.00 29 1020.7
20260503000009 53 360 0.9 5.2 0.00 0.00 0.00 26 1020.7
20260502234505 53 322 3.5 7.0 0.00 0.00 0.00 29 1020.8
20260502233004 53 10 3.5 9.6 0.00 0.00 0.00 26 1020.8
20260502231505 54 321 4.3 8.7 0.00 0.00 0.00 26 1020.9
20260502230003 54 9 2.6 7.8 0.00 0.00 0.00 25 1021.0
20260502224501 54 321 1.7 8.7 0.00 0.00 0.00 26 1021.0
20260502223001 53 28 3.5 9.6 0.00 0.00 0.00 26 1021.0
20260502221603 55 309 4.3 11.3 0.00 0.00 0.00 24 1021.2
20260502220059 54 355 4.3 11.3 0.00 0.00 0.00 23 1021.2
20260502214558 54 11 6.1 10.4 0.00 0.00 0.00 24 1021.2
20260502213107 54 297 7.8 13.9 0.00 0.00 0.00 24 1021.0
20260502211557 54 317 8.7 13.9 0.00 0.00 0.00 26 1021.2
20260502210056 54 23 8.7 13.9 0.00 0.00 0.00 25 1021.2
20260502204555 54 303 7.8 13.0 0.00 0.00 0.00 26 1021.4